DRAGON CRS-14 is no longer on orbit DRAGON CRS-14 is classified as:
1 43267U 18032A 18124.75998068 +.00001739 +00000-0 +33432-4 0 9993 2 43267 051.6425 235.1983 0003395 049.1570 107.8277 15.54200133004969